When you browse on this site, cookies collect data to enhance your experience and personalize the content and advertising you see.
Visit our Privacy Policy to learn more. By continuing to use the site, you agree to this use of cookies and data.

Hourly Weather Lyapunovka

Today, 15 August, Saturday

Time Temperature Precipitation Wind Pressure Humidity
00:00 +9°C° 0 mm 2 mps 745 mmHg 84%
01:00 +9°C° 0 mm 2 mps 745 mmHg 85%
02:00 +9°C° 0 mm 3 mps 745 mmHg 89%
03:00 +9°C° 0 mm 3 mps 745 mmHg 90%
04:00 +9°C° 0 mm 3 mps 746 mmHg 91%
05:00 +9°C° 0 mm 3 mps 746 mmHg 92%
06:00 +10°C° 0 mm 3 mps 746 mmHg 86%
07:00 +12°C° 0 mm 3 mps 746 mmHg 79%
08:00 +14°C° 0 mm 3 mps 746 mmHg 73%
09:00 +16°C° 0 mm 3 mps 746 mmHg 68%
10:00 +17°C° 0 mm 3 mps 746 mmHg 63%
11:00 +19°C° 0 mm 4 mps 746 mmHg 57%
12:00 +19°C° 0 mm 4 mps 746 mmHg 57%
13:00 +19°C° 0 mm 3 mps 745 mmHg 57%
14:00 +19°C° 0 mm 3 mps 745 mmHg 57%
15:00 +19°C° 0 mm 3 mps 745 mmHg 61%
16:00 +18°C° 0 mm 3 mps 745 mmHg 64%
17:00 +18°C° 0 mm 3 mps 745 mmHg 68%
18:00 +17°C° 0 mm 2 mps 745 mmHg 71%
19:00 +16°C° 0 mm 2 mps 745 mmHg 74%
20:00 +15°C° 0 mm 2 mps 744 mmHg 78%
21:00 +15°C° 0 mm 2 mps 744 mmHg 79%
22:00 +15°C° 0 mm 2 mps 744 mmHg 81%
23:00 +15°C° 0 mm 2 mps 744 mmHg 82%

Tomorrow, 16 August, Sunday

Time Temperature Precipitation Wind Pressure Humidity
00:00 +14°C° 0.1 mm 2 mps 744 mmHg 85%
01:00 +14°C° 0.1 mm 2 mps 744 mmHg 87%
02:00 +14°C° 0.1 mm 2 mps 744 mmHg 90%
03:00 +13°C° 0 mm 2 mps 744 mmHg 91%
04:00 +13°C° 0 mm 1 mps 744 mmHg 92%
05:00 +13°C° 0 mm 1 mps 744 mmHg 94%
06:00 +14°C° 0 mm 1 mps 744 mmHg 88%
07:00 +15°C° 0 mm 1 mps 744 mmHg 82%
08:00 +18°C° 0 mm 1 mps 744 mmHg 77%
09:00 +18°C° 0 mm 2 mps 744 mmHg 73%
10:00 +19°C° 0 mm 2 mps 744 mmHg 69%
11:00 +20°C° 0 mm 2 mps 744 mmHg 65%
12:00 +20°C° 0 mm 2 mps 744 mmHg 64%
13:00 +20°C° 0 mm 2 mps 743 mmHg 64%
14:00 +21°C° 0 mm 2 mps 743 mmHg 63%
15:00 +21°C° 0 mm 2 mps 743 mmHg 65%
16:00 +21°C° 0 mm 2 mps 743 mmHg 68%
17:00 +21°C° 0 mm 2 mps 743 mmHg 70%
18:00 +19°C° 0 mm 2 mps 743 mmHg 75%
19:00 +18°C° 0 mm 2 mps 743 mmHg 79%
20:00 +17°C° 0 mm 2 mps 743 mmHg 84%
21:00 +17°C° 0 mm 2 mps 743 mmHg 87%
22:00 +16°C° 0 mm 3 mps 742 mmHg 89%
23:00 +16°C° 0 mm 3 mps 742 mmHg 92%

Day after tomorrow, 17 August, Monday

Time Temperature Precipitation Wind Pressure Humidity
00:00 +16°C° 0 mm 3 mps 742 mmHg 93%
01:00 +16°C° 0 mm 3 mps 742 mmHg 93%
02:00 +14°C° 0 mm 3 mps 742 mmHg 94%
03:00 +14°C° 0 mm 3 mps 742 mmHg 94%
04:00 +14°C° 0 mm 3 mps 742 mmHg 94%
05:00 +14°C° 0 mm 3 mps 742 mmHg 94%
06:00 +17°C° 0 mm 3 mps 742 mmHg 88%
07:00 +19°C° 0 mm 4 mps 742 mmHg 81%
08:00 +21°C° 0 mm 4 mps 742 mmHg 75%
09:00 +22°C° 0 mm 4 mps 742 mmHg 70%
10:00 +23°C° 0 mm 5 mps 742 mmHg 65%
11:00 +26°C° 0 mm 5 mps 742 mmHg 60%
12:00 +26°C° 0 mm 5 mps 741 mmHg 59%
13:00 +26°C° 0 mm 6 mps 741 mmHg 58%
14:00 +27°C° 0 mm 6 mps 741 mmHg 57%
15:00 +26°C° 0.2 mm 5 mps 741 mmHg 61%
16:00 +25°C° 0.2 mm 4 mps 741 mmHg 66%
17:00 +23°C° 0.2 mm 4 mps 741 mmHg 70%
18:00 +22°C° 0 mm 3 mps 741 mmHg 74%
19:00 +21°C° 0 mm 3 mps 741 mmHg 78%
20:00 +19°C° 0 mm 3 mps 741 mmHg 82%
21:00 +19°C° 0 mm 3 mps 741 mmHg 85%
22:00 +18°C° 0 mm 3 mps 741 mmHg 87%
23:00 +17°C° 0 mm 3 mps 741 mmHg 90%

18 August, Tuesday

Time Temperature Precipitation Wind Pressure Humidity
00:00 +17°C° 0 mm 3 mps 741 mmHg 91%
01:00 +17°C° 0 mm 3 mps 742 mmHg 92%
02:00 +16°C° 0 mm 2 mps 742 mmHg 94%
03:00 +16°C° 0 mm 2 mps 742 mmHg 94%
04:00 +16°C° 0 mm 2 mps 742 mmHg 94%
05:00 +16°C° 0 mm 1 mps 742 mmHg 95%
06:00 +18°C° 0 mm 1 mps 742 mmHg 89%
07:00 +20°C° 0 mm 1 mps 742 mmHg 82%
08:00 +21°C° 0 mm 1 mps 742 mmHg 76%
09:00 +22°C° 0 mm 1 mps 742 mmHg 71%
10:00 +23°C° 0 mm 1 mps 742 mmHg 67%
11:00 +24°C° 0 mm 2 mps 742 mmHg 62%
12:00 +25°C° 0.1 mm 2 mps 742 mmHg 60%
13:00 +25°C° 0.1 mm 2 mps 741 mmHg 57%
14:00 +26°C° 0.1 mm 1 mps 741 mmHg 55%
15:00 +25°C° 0 mm 1 mps 741 mmHg 58%
16:00 +25°C° 0 mm 1 mps 741 mmHg 61%
17:00 +25°C° 0 mm 1 mps 741 mmHg 65%
18:00 +23°C° 0 mm 1 mps 741 mmHg 68%
19:00 +22°C° 0 mm 1 mps 741 mmHg 71%
20:00 +21°C° 0 mm 1 mps 741 mmHg 75%
21:00 +20°C° 1 mm 1 mps 741 mmHg 80%
22:00 +20°C° 1 mm 1 mps 741 mmHg 86%
23:00 +19°C° 1 mm 1 mps 741 mmHg 91%

19 August, Wednesday

Time Temperature Precipitation Wind Pressure Humidity
00:00 +19°C° 0.2 mm 1 mps 741 mmHg 91%
01:00 +19°C° 0.2 mm 1 mps 741 mmHg 90%
02:00 +19°C° 0.2 mm 1 mps 741 mmHg 89%
03:00 +19°C° 0 mm 1 mps 741 mmHg 89%
04:00 +19°C° 0 mm 1 mps 740 mmHg 90%
05:00 +18°C° 0 mm 2 mps 740 mmHg 90%
06:00 +19°C° 0 mm 1 mps 740 mmHg 88%
07:00 +20°C° 0 mm 1 mps 740 mmHg 86%
08:00 +20°C° 0 mm 1 mps 740 mmHg 84%
09:00 +20°C° 0.1 mm 2 mps 740 mmHg 81%
10:00 +21°C° 0.1 mm 2 mps 740 mmHg 79%
11:00 +21°C° 0.1 mm 2 mps 741 mmHg 76%
12:00 +20°C° 0.5 mm 3 mps 740 mmHg 80%
13:00 +20°C° 0.5 mm 3 mps 740 mmHg 84%
14:00 +19°C° 0.5 mm 4 mps 740 mmHg 88%
15:00 +19°C° 0.2 mm 4 mps 740 mmHg 88%
16:00 +19°C° 0.2 mm 3 mps 740 mmHg 89%
17:00 +18°C° 0.2 mm 2 mps 740 mmHg 89%
18:00 +18°C° 0 mm 3 mps 740 mmHg 89%
19:00 +18°C° 0 mm 3 mps 740 mmHg 89%
20:00 +18°C° 0 mm 4 mps 739 mmHg 89%
21:00 +18°C° 0 mm 4 mps 739 mmHg 90%
22:00 +18°C° 0 mm 4 mps 739 mmHg 91%
23:00 +18°C° 0 mm 4 mps 739 mmHg 92%

20 August, Thursday

Time Temperature Precipitation Wind Pressure Humidity
00:00 +18°C° 0 mm 4 mps 739 mmHg 92%
01:00 +18°C° 0 mm 4 mps 739 mmHg 92%
02:00 +18°C° 0 mm 3 mps 738 mmHg 92%
03:00 +18°C° 0 mm 3 mps 738 mmHg 91%
04:00 +18°C° 0 mm 3 mps 738 mmHg 90%
05:00 +18°C° 0 mm 3 mps 738 mmHg 89%
06:00 +18°C° 0.2 mm 3 mps 738 mmHg 87%
07:00 +19°C° 0.2 mm 3 mps 738 mmHg 85%
08:00 +19°C° 0.2 mm 3 mps 738 mmHg 83%
09:00 +20°C° 0.2 mm 3 mps 738 mmHg 81%
10:00 +21°C° 0.2 mm 3 mps 739 mmHg 78%
11:00 +21°C° 0.2 mm 3 mps 739 mmHg 76%
12:00 +21°C° 0 mm 3 mps 739 mmHg 77%
13:00 +21°C° 0 mm 3 mps 739 mmHg 77%
14:00 +21°C° 0 mm 2 mps 739 mmHg 78%
15:00 +21°C° 0.1 mm 3 mps 739 mmHg 79%
16:00 +21°C° 0.1 mm 3 mps 739 mmHg 80%
17:00 +21°C° 0.1 mm 3 mps 739 mmHg 81%
18:00 +21°C° 0.1 mm 3 mps 739 mmHg 83%
19:00 +20°C° 0.1 mm 3 mps 739 mmHg 84%
20:00 +20°C° 0.1 mm 2 mps 739 mmHg 86%
21:00 +19°C° 0 mm 3 mps 739 mmHg 86%
22:00 +19°C° 0 mm 3 mps 739 mmHg 86%
23:00 +19°C° 0 mm 3 mps 739 mmHg 86%
Show more